Location: Beekmeers
(50.8953°N, 3.6968°E)
Time: 05:44:25
(UTC+00:00)

Lacrosse 5 rocket - Pass Details

Date: 23 May 2024
Orbit: 445 x 572 km, 57.0° (Epoch: 19 June)

Event Time Altitude Azimuth Distance (km) Brightness Sun altitude
Rises 02:58:58 0° 291° (WNW) 2,707 4.6 -6.4°
Reaches altitude 10° 03:02:19 10° 263° (W) 1,778 3.4 -6.0°
Maximum altitude 03:04:05 13° 237° (WSW) 1,597 3.0 -5.8°
Drops below altitude 10° 03:05:48 10° 210° (SSW) 1,737 3.3 -5.6°
Sets 03:09:00 0° 181° (S) 2,582 4.3 -5.3°
